Regional Weather Roundup
Issued by NWS State College, PA

Home | Current Version | Previous Version | Text Only | Print | Product List | Glossary On
Versions: 1 2 3 4 5 6 7 8 9 10 11 12 13 14 15 16 17 18 19 20 21 22 23 24 25 26 27 28 29 30 31 32 33 34 35 36 37 38 39 40 41 42 43 44 45 46 47 48 49 50
000
ASUS41 KCTP 172110
RWRCTP

REGIONAL WEATHER ROUNDUP
NATIONAL WEATHER SERVICE STATE COLLEGE PA
400 PM EST SUN DEC 17 2017

Note: "fair" indicates few or no clouds below 12,000 feet with no
significant weather and/or obstructions to visibility.

* = STATION THAT DOES NOT REPORT PRECIPITATION /E.G. RAIN...SNOW...ETC/
    THUNDER OR FOG.

PAZ002>004-007>009-013>016-020>023-029>032-172200-
WESTERN PENNSYLVANIA

CITY           SKY/WX    TMP DP  RH WIND       PRES   REMARKS
ERIE           CLOUDY    29  26  89 NE8       30.13R FOG
MEADVILLE      CLOUDY    32  28  85 VRB3      30.09R
FRANKLIN*      CLOUDY    32  28  85 CALM      30.11R
NEW CASTLE     MOCLDY    38  29  70 CALM      30.13R
BEAVER COUNTY  CLOUDY    37  28  70 S5        30.11R
BUTLER*        CLOUDY    38  29  70 S6        30.12R
PITTSBURGH INT CLOUDY    42  30  62 SW3       30.13R
PITTSBURGH     CLOUDY    39  28  64 S6        30.13R
INDIANA*       MOCLDY    39  30  70 CALM      30.14S
LATROBE        CLOUDY    41  32  70 SW7       30.12S
WASHINGTON CO* LGT RAIN  39  32  76 SW6       30.17R
$$

PAZ004>006-010>012-017>019-024>028-033>037-041-042-045-046-049>053-172200-
CENTRAL PENNSYLVANIA

CITY           SKY/WX    TMP DP  RH WIND       PRES   REMARKS
BRADFORD       CLOUDY    31  28  89 SE5       30.07S
DUBOIS         CLOUDY    33  26  75 SE3       30.09R
CLEARFIELD     CLOUDY    33  27  78 N5        30.12R
JOHNSTOWN      CLOUDY    38  28  67 SW6       30.08R
ALTOONA        CLOUDY    41  30  65 S8        30.12S
STATE COLLEGE  PTCLDY    34  28  80 CALM      30.13S
WILLIAMSPORT   CLOUDY    37  28  70 E6        30.17F
SELINSGROVE    PTCLDY    36  29  75 CALM      30.18F
FT INDIANTOWN  MOCLDY    37  29  72 CALM      30.18S
CAPITAL CITY   PTCLDY    41  28  60 E5        30.18S
HARRISBURG     CLOUDY    40  29  64 CALM      30.18S
YORK           CLOUDY    43  31  62 SE3       30.17S
$$

PAZ038>040-043-044-047-048-054-055-060>062-067>071-172200-
EASTERN PENNSYLVANIA

CITY           SKY/WX    TMP DP  RH WIND       PRES   REMARKS
SCRANTON       PTCLDY    31  23  72 CALM      30.17F
MOUNT POCONO   CLOUDY    29  24  82 E3        30.12S
ALLENTOWN      CLOUDY    36  25  64 NE5       30.20F
QUAKERTOWN*    CLOUDY    37  27  65 CALM      30.20S
READING        PTCLDY    38  30  73 CALM      30.19F
LANCASTER      CLOUDY    39  32  76 SE6       30.19S
COATESVILLE    CLOUDY    41  28  60 CALM      30.20S
POTTSTOWN      CLOUDY    38  26  62 CALM      30.22S
BLUE BELL      CLOUDY    37  28  70 CALM      30.22R
DOYLESTOWN     PTCLDY    37  26  64 CALM      30.20S
WILLOW GROVE   NOT AVBL
NORTH PHILA    CLOUDY    42  30  62 E3        30.24R
PHILADELPHIA   CLOUDY    43  28  55 CALM      30.22S
$$



USA.gov is the U.S. government's official web portal to all federal, state and local government web resources and services.